Weather History for Montrose, CO

Change the Weather History Date:

Friday, July 13, 2012

  Actual Average Record
Temperature  
Mean Temperature 77 °F 74 °F  
Max Temperature 92 °F 90 °F 100 °F (2002)
Min Temperature 61 °F 58 °F 53 °F (1997)
Degree Days  
Heating Degree Days 0 0  
Month to date heating degree days 0 0  
Since 1 June heating degree days 6 39  
Since 1 July heating degree days 0 0  
Cooling Degree Days 12 9  
Month to date cooling degree days 142 109  
Year to date cooling degree days 434 261  
Since 1 June cooling degree days 411 244  
Growing Degree Days 26 (Base 50)    
Moisture  
Dew Point 45 °F    
Average Humidity 35    
Maximum Humidity 52    
Minimum Humidity 18    
Precipitation  
Precipitation T in 0.03 in 0.22 in (2013)
Month to date precipitation 0.80 0.33  
Year to date precipitation 2.36 5.40  
Sea Level Pressure  
Sea Level Pressure 29.95 in    
Wind  
Wind Speed 8 mph (SE)    
Max Wind Speed 26 mph    
Max Gust Speed 32 mph    
Visibility 10 miles    
Events      
T = Trace of Precipitation, MM = Missing Value Source: NWS Daily Summary

Daily Weather History Graph

Daily Weather History Graph

Search for Another Location

Airport:

Trip Planner

Search our weather history database for the weather conditions in past years. The results will help you decide how hot, cold, wet, or windy it might be!

Date:

Astronomy

Jul. 13, 2012 Rise Set
Actual Time 5:58 AM MDT 8:35 PM MDT
Civil Twilight 5:27 AM MDT 9:06 PM MDT
Nautical Twilight 4:49 AM MDT 9:45 PM MDT
Astronomical Twilight 4:05 AM MDT 10:28 PM MDT
Moon 1:36 AM MDT (7/13) 4:08 PM MDT (7/13)
Length of Visible Light 15h 39m
Length of Day
14h 37m
Waning Crescent, 26% of the Moon is Illuminated
Jul 13
Waning Crescent
Jul 18
New
Jul 26
First Quarter
Aug 1
Full
Aug 9
Last Quarter

Hourly Weather History & Observations

Time (MDT) Temp. Dew Point Humidity Pressure Visibility Wind Dir Wind Speed Gust Speed Precip Events Conditions
12:53 AM 73.0 °F 44.1 °F 35% 29.90 in 10.0 mi Calm Calm - N/A   Clear
1:53 AM 72.0 °F 44.1 °F 37% 29.90 in 10.0 mi East 10.4 mph - N/A   Clear
2:53 AM 66.9 °F 44.1 °F 44% 29.92 in 10.0 mi ESE 5.8 mph - N/A   Clear
3:53 AM 64.0 °F 45.0 °F 50% 29.93 in 10.0 mi SSE 4.6 mph - N/A   Clear
4:53 AM 63.0 °F 44.1 °F 50% 29.94 in 10.0 mi Calm Calm - N/A   Clear
5:53 AM 62.1 °F 45.0 °F 53% 29.95 in 10.0 mi ESE 5.8 mph - N/A   Clear
6:53 AM 62.1 °F 45.0 °F 53% 29.99 in 10.0 mi South 3.5 mph - N/A   Clear
7:53 AM 72.0 °F 45.0 °F 38% 29.99 in 10.0 mi East 8.1 mph - N/A   Clear
8:53 AM 75.9 °F 44.1 °F 32% 29.99 in 10.0 mi East 9.2 mph - N/A   Clear
9:53 AM 81.0 °F 43.0 °F 26% 29.97 in 10.0 mi East 4.6 mph - N/A   Clear
10:53 AM 84.9 °F 41.0 °F 21% 29.96 in 10.0 mi East 4.6 mph - N/A   Clear
11:53 AM 87.1 °F 39.9 °F 19% 29.94 in 10.0 mi West 4.6 mph - N/A   Clear
12:53 PM 90.0 °F 41.0 °F 18% 29.91 in 10.0 mi Variable 5.8 mph - N/A   Clear
1:53 PM 89.1 °F 41.0 °F 19% 29.89 in 10.0 mi WNW 9.2 mph - N/A   Clear
2:53 PM 80.1 °F 45.0 °F 29% 29.96 in 10.0 mi SSW 8.1 mph - N/A   Partly Cloudy
3:53 PM 81.0 °F 52.0 °F 36% 29.96 in 10.0 mi SSE 10.4 mph - 0.00 in   Scattered Clouds
4:53 PM 82.9 °F 46.0 °F 27% 29.94 in 10.0 mi SE 12.7 mph - N/A   Partly Cloudy
5:53 PM 82.0 °F 46.9 °F 29% 29.95 in 10.0 mi SE 9.2 mph - N/A   Clear
6:53 PM 82.0 °F 48.0 °F 30% 29.95 in 10.0 mi ESE 4.6 mph - N/A   Mostly Cloudy
7:53 PM 80.1 °F 45.0 °F 29% 29.93 in 10.0 mi WSW 24.2 mph 28.8 mph N/A   Overcast
9:53 PM 75.0 °F 45.0 °F 34% 30.00 in 10.0 mi SE 10.4 mph - N/A   Mostly Cloudy
10:53 PM 72.0 °F 48.9 °F 44% 29.98 in 10.0 mi SSW 11.5 mph 18.4 mph N/A   Mostly Cloudy
11:53 PM 72.0 °F 48.0 °F 43% 29.97 in 10.0 mi SE 9.2 mph - N/A   Mostly Cloudy